Colby, KS

2:41 AM CDT on July 25, 2017 (GMT -0500)
Shaltz

Weather History for KCBK - April, 2013

Change the Weather History Date:

Saturday, April 6, 2013

  Actual Average (KGLD) Record (KGLD)
Temperature  
Mean Temperature 58 °F -  
Max Temperature 69 °F 64 °F 88 °F (1991)
Min Temperature 48 °F 33 °F 8 °F (1936)
Degree Days  
Heating Degree Days 6    
Growing Degree Days 8 (Base 50)    
Moisture  
Dew Point 36 °F    
Average Humidity 45    
Maximum Humidity 71    
Minimum Humidity 25    
Precipitation  
Precipitation 0.00 in - - ()
Sea Level Pressure  
Sea Level Pressure 29.81 in    
Wind  
Wind Speed 15 mph (NW)    
Max Wind Speed 29 mph    
Max Gust Speed 34 mph    
Visibility 10 miles    
Events      
Averages and records for this station are not official NWS values.
T = Trace of Precipitation, MM = Missing Value Source: NWS Daily Summary

Daily Weather History Graph

Daily Weather History Graph

Search for Another Location

Airport or City:

Trip Planner

Search our weather history database for the weather conditions in past years. The results will help you decide how hot, cold, wet, or windy it might be!

Date:

Astronomy

Apr. 06, 2013 Rise Set
Actual Time 7:20 AM CDT 8:13 PM CDT
Civil Twilight 6:52 AM CDT 8:40 PM CDT
Nautical Twilight 6:20 AM CDT 9:13 PM CDT
Astronomical Twilight 5:47 AM CDT 9:46 PM CDT
Moon 5:04 AM CDT (4/6) 4:45 PM CDT (4/6)
Length of Visible Light 13h 47m
Length of Day
12h 53m
Waning Crescent, 15% of the Moon is Illuminated
Apr 6
Waning Crescent
Apr 10
New
Apr 18
First Quarter
Apr 25
Full
May 2
Last Quarter

Hourly Weather History & Observations

Time (CDT) Temp. Dew Point Humidity Pressure Visibility Wind Dir Wind Speed Gust Speed Precip Events Conditions
12:15 AM 57.2 °F 42.8 °F 59% 29.64 in 10.0 mi SSE 11.5 mph - N/A   Clear
12:35 AM 57.2 °F 42.8 °F 59% 29.64 in 10.0 mi South 10.4 mph - N/A   Clear
12:55 AM 55.4 °F 42.8 °F 63% 29.64 in 10.0 mi SSW 5.8 mph - N/A   Clear
1:15 AM 51.8 °F 42.8 °F 71% 29.66 in 10.0 mi WNW 19.6 mph 26.5 mph N/A   Clear
1:35 AM 55.4 °F 42.8 °F 63% 29.66 in 10.0 mi WNW 3.5 mph - N/A   Scattered Clouds
1:55 AM 59.0 °F 39.2 °F 48% 29.66 in 10.0 mi NW 24.2 mph 29.9 mph N/A   Scattered Clouds
2:15 AM 60.8 °F 39.2 °F 45% 29.69 in 10.0 mi NW 23.0 mph - N/A   Clear
2:35 AM 60.8 °F 41.0 °F 48% 29.70 in 10.0 mi NW 24.2 mph 33.4 mph N/A   Clear
2:55 AM 59.0 °F 42.8 °F 55% 29.68 in 10.0 mi NNW 21.9 mph 29.9 mph N/A   Clear
3:15 AM 57.2 °F 42.8 °F 59% 29.69 in 10.0 mi NNW 12.7 mph - N/A   Clear
3:35 AM 55.4 °F 42.8 °F 63% 29.69 in 10.0 mi NNW 11.5 mph - N/A   Clear
3:55 AM 55.4 °F 41.0 °F 58% 29.70 in 10.0 mi NW 11.5 mph - N/A   Clear
4:15 AM 53.6 °F 41.0 °F 62% 29.70 in 10.0 mi WNW 16.1 mph - N/A   Clear
4:35 AM 55.4 °F 39.2 °F 54% 29.71 in 10.0 mi NW 18.4 mph 28.8 mph N/A   Clear
4:55 AM 55.4 °F 37.4 °F 51% 29.71 in 10.0 mi NW 28.8 mph 34.5 mph N/A   Clear
5:15 AM 55.4 °F 37.4 °F 51% 29.72 in 10.0 mi NW 27.6 mph 34.5 mph N/A   Clear
5:35 AM 53.6 °F 41.0 °F 62% 29.73 in 10.0 mi NW 25.3 mph 29.9 mph N/A   Clear
5:55 AM 51.8 °F 41.0 °F 67% 29.76 in 10.0 mi NW 25.3 mph - N/A   Clear
6:15 AM 51.8 °F 41.0 °F 67% 29.78 in 10.0 mi NW 23.0 mph 33.4 mph N/A   Clear
6:35 AM 50.0 °F 41.0 °F 71% 29.79 in 10.0 mi NW 20.7 mph 27.6 mph N/A   Clear
6:55 AM 50.0 °F 39.2 °F 66% 29.81 in 10.0 mi NW 18.4 mph - N/A   Clear
7:15 AM 48.2 °F 39.2 °F 71% 29.82 in 10.0 mi NW 17.3 mph - N/A   Clear
7:35 AM 48.2 °F 39.2 °F 71% 29.83 in 10.0 mi NW 17.3 mph - N/A   Clear
7:55 AM 48.2 °F 39.2 °F 71% 29.84 in 10.0 mi WNW 17.3 mph 24.2 mph N/A   Clear
8:15 AM 50.0 °F 39.2 °F 66% 29.84 in 10.0 mi WNW 20.7 mph 25.3 mph N/A   Clear
8:35 AM 50.0 °F 39.2 °F 66% 29.86 in 10.0 mi NW 20.7 mph 25.3 mph N/A   Clear
8:55 AM 51.8 °F 41.0 °F 67% 29.86 in 10.0 mi NW 18.4 mph 26.5 mph N/A   Clear
9:15 AM 53.6 °F 41.0 °F 62% 29.86 in 10.0 mi NW 20.7 mph 29.9 mph N/A   Clear
9:55 AM 57.2 °F 39.2 °F 51% 29.86 in 10.0 mi NNW 23.0 mph 28.8 mph N/A   Clear
10:15 AM 59.0 °F 39.2 °F 48% 29.85 in 10.0 mi NNW 24.2 mph 31.1 mph N/A   Clear
10:35 AM 59.0 °F 39.2 °F 48% 29.84 in 10.0 mi NNW 20.7 mph 32.2 mph N/A   Clear
10:55 AM 60.8 °F 37.4 °F 42% 29.85 in 10.0 mi NNW 23.0 mph 28.8 mph N/A   Clear
11:15 AM 62.6 °F 37.4 °F 39% 29.85 in 10.0 mi NNW 20.7 mph 26.5 mph N/A   Clear
11:35 AM 62.6 °F 37.4 °F 39% 29.85 in 10.0 mi NNW 24.2 mph 31.1 mph N/A   Clear
11:55 AM 64.4 °F 37.4 °F 37% 29.86 in 10.0 mi NNW 26.5 mph 31.1 mph N/A   Clear
12:15 PM 64.4 °F 35.6 °F 34% 29.86 in 10.0 mi NNW 21.9 mph 28.8 mph N/A   Clear
12:35 PM 64.4 °F 35.6 °F 34% 29.85 in 10.0 mi NNW 24.2 mph 31.1 mph N/A   Clear
12:55 PM 68.0 °F 33.8 °F 28% 29.86 in 10.0 mi NNW 23.0 mph 29.9 mph N/A   Clear
1:15 PM 68.0 °F 33.8 °F 28% 29.86 in 10.0 mi NW 17.3 mph 26.5 mph N/A   Clear
1:35 PM 68.0 °F 33.8 °F 28% 29.86 in 10.0 mi North 10.4 mph 24.2 mph N/A   Clear
1:55 PM 69.8 °F 33.8 °F 27% 29.86 in 10.0 mi NW 20.7 mph 24.2 mph N/A   Clear
2:15 PM 69.8 °F 32.0 °F 25% 29.86 in 10.0 mi NW 17.3 mph 24.2 mph N/A   Clear
2:35 PM 69.8 °F 32.0 °F 25% 29.86 in 10.0 mi NW 19.6 mph 25.3 mph N/A   Clear
2:55 PM 68.0 °F 33.8 °F 28% 29.86 in 10.0 mi NW 13.8 mph 19.6 mph N/A   Scattered Clouds
3:15 PM 69.8 °F 32.0 °F 25% 29.85 in 10.0 mi NNW 10.4 mph 25.3 mph N/A   Scattered Clouds
3:35 PM 69.8 °F 32.0 °F 25% 29.84 in 10.0 mi WNW 13.8 mph - N/A   Clear
3:55 PM 69.8 °F 32.0 °F 25% 29.84 in 10.0 mi NW 13.8 mph 18.4 mph N/A   Clear
4:15 PM 69.8 °F 32.0 °F 25% 29.84 in 10.0 mi WNW 10.4 mph - N/A   Clear
4:35 PM 69.8 °F 32.0 °F 25% 29.84 in 10.0 mi NW 13.8 mph 23.0 mph N/A   Clear
4:55 PM 69.8 °F 32.0 °F 25% 29.84 in 10.0 mi WNW 10.4 mph 16.1 mph N/A   Clear
5:15 PM 69.8 °F 32.0 °F 25% 29.84 in 10.0 mi NW 6.9 mph 13.8 mph N/A   Clear
5:35 PM 69.8 °F 32.0 °F 25% 29.84 in 10.0 mi NNW 11.5 mph 17.3 mph N/A   Clear
5:55 PM 68.0 °F 32.0 °F 26% 29.84 in 10.0 mi NW 13.8 mph 17.3 mph N/A   Clear
6:15 PM 68.0 °F 32.0 °F 26% 29.84 in 10.0 mi NW 11.5 mph 18.4 mph N/A   Clear
6:35 PM 68.0 °F 32.0 °F 26% 29.84 in 10.0 mi NW 9.2 mph - N/A   Clear
6:55 PM 68.0 °F 32.0 °F 26% 29.84 in 10.0 mi NW 5.8 mph - N/A   Clear
7:15 PM 68.0 °F 32.0 °F 26% 29.84 in 10.0 mi NW 5.8 mph - N/A   Clear
7:35 PM 64.4 °F 33.8 °F 32% 29.84 in 10.0 mi NW 4.6 mph - N/A   Clear
7:55 PM 62.6 °F 32.0 °F 32% 29.85 in 10.0 mi WNW 4.6 mph - N/A   Clear
8:15 PM 60.8 °F 32.0 °F 34% 29.85 in 10.0 mi WNW 4.6 mph - N/A   Clear
8:35 PM 59.0 °F 30.2 °F 34% 29.85 in 10.0 mi West 3.5 mph - N/A   Clear
8:55 PM 53.6 °F 30.2 °F 41% 29.86 in 10.0 mi West 4.6 mph - N/A   Clear
9:15 PM 59.0 °F 30.2 °F 34% 29.86 in 10.0 mi West 3.5 mph - N/A   Clear
9:35 PM 53.6 °F 30.2 °F 41% 29.86 in 10.0 mi SW 3.5 mph - N/A   Clear
9:55 PM 53.6 °F 30.2 °F 41% 29.87 in 10.0 mi SW 5.8 mph - N/A   Clear
10:15 PM 50.0 °F 32.0 °F 50% 29.87 in 10.0 mi SW 5.8 mph - N/A   Scattered Clouds
10:35 PM 53.6 °F 32.0 °F 44% 29.87 in 10.0 mi South 4.6 mph - N/A   Mostly Cloudy
10:55 PM 50.0 °F 32.0 °F 50% 29.87 in 10.0 mi SW 3.5 mph - N/A   Mostly Cloudy
11:15 PM 50.0 °F 33.8 °F 54% 29.87 in 10.0 mi SW 3.5 mph - N/A   Mostly Cloudy
11:35 PM 51.8 °F 32.0 °F 47% 29.86 in 10.0 mi Calm Calm - N/A   Mostly Cloudy
11:55 PM 50.0 °F 33.8 °F 54% 29.86 in 10.0 mi SW 3.5 mph - N/A   Scattered Clouds